Погода в Калининграде

Погода в Калининграде : погода сейчас, прогноз погоды и архив. Всё, что Вы хотите узнать о погоде в Калининграде!

Хотите узнать прогноз погоды в Калининграде? Тогда Вам сюда: Погода в Калининграде

Поиск расширенной информации на нашем сайте:

Другие новости

Новости СМИ2

Главная страница сайта

Новости сайта

03.07.2017

Напоминаем, что на нашем специализированном сайте Метеоцентр.Азия вы можете получить высокодетализированные автоматические прогнозы погоды по пунктам России, СНГ и мира в авиационном формате (включающие направление и скорость ветра, видимость, явления погоды, количество и форму облачности, нижнюю и верхнюю границу облачности).


Погода в Калининграде - сегодня

Время (UTC), дата Ветер
(°,м/с) 
Видим.   Явления Облачность Т
(°С)
Тd
(°С)
f(%) Тe
(°С)
Pmin
(гПа)
dP
(гПа)
Po
(мм)
O2
(г/м3)
Тmin Tmax R s Состояние
почвы
03 04.04.18 090 (В) 1-1{01}  0200 м  туман  ?/?  
+1.7 +1.6 99 +2  1008.4  0.1  754  302  +1.3    0.0     
21 04.04.18 330 (СЗ) 1-1{03}  10 км    ясно 
+8.8 +5.9 82 +10  1004.6  -0.7  752  292           
03 05.04.18 тихо () -0{01}  4000 м  дымка  9/9 600 м 
[Sc]
+5.9 +5.4 97 +6  1003  -0.8  750  295  +5.3         
03 06.04.18 270 (З) 3-9{11}  10 км    9/9 600 м 
[Sc]
+4.6 +0.7 76 +3  1013.4  758  300  +4.6         
21 06.04.18 250 (З) 2-4{11}  10 км    ясно 
+3.7 +0.5 80 +3  1024.5  1.8  766  305           
03 07.04.18 тихо () -0{05}  4000 м  дымка  8/0 верхняя 
[Ci fib]
+1.8 +0.2 89 +2  1027  0.9  768  307  +1.8         
21 07.04.18 170 (Ю) 1-3{04}  10 км    ясно 
+7.3 -2.3 50 +8  1021.7  -0.8  764  300           
21 08.04.18 100 (В) 1-1{03}  10 км    ясно 
+11 +8.1 82 +12  1013.8  -0.8  758  292           
03 09.04.18 130 (ЮВ) 1-3{03}  10 км  дымка  ясно 
+9.7 +6.8 82 +11  1010.3  -2  756  293  +9.7         
09 09.04.18 160 (Ю) 2-5{06}  10 км    ясно 
+20.3 +8.2 46 +20  1007.5  -1.6  754  281           
03 10.04.18 тихо () -0{01}  4000 м  местами туман поземный  ясно 
+4.7 +4.3 97 +5  1010.4  1.1  756  299  +4.7         
09 10.04.18 040 (СВ) 2-3{04}  10 км    ясно 
+15.2 +9 66 +16  1012.6  1.5  758  288           
03 11.04.18 070 (В) 3-6{09}  10 км    4/4 600 м 
[Sc]
+3.1 +0.5 83 +2  1018.5  0.4  762  303  +3.1         
03 12.04.18 070 (В) 1-3{04}  10 км    6/0 верхняя 
[Ci fib]
+4.5 +0.9 77 +5  1018.2  762  302  +4.5         
21 12.04.18 100 (В) 3-6{07}  10 км    ясно 
+11.6 +5.6 67 +11  1018.2  0.9  762  294           
09 13.04.18 100 (В) 4-8{09}  10 км    ясно 
+14.7 +7.1 60 +15  1017.8  -0.2  761  290           
21 13.04.18 110 (В) 3-6{09}  10 км    ясно 
+13.9 +7.6 66 +14  1017.8  1.2  761  291           
21 14.04.18 тихо () -0{05}  10 км    ясно 
+10 +7.4 84 +10  1021.6  0.9  764  296           
03 15.04.18 тихо () -0{01}  4000 м  дымка  3/3 600 м средняя 
[Cu med, cong|Ac trans]
+8.2 +7.2 93 +8  1020.7  -0.3  764  297  +7.5         
03 16.04.18 100 (В) 1-2{04}  10 км    10/10 600 м 
[Sc]
+12.9 +7 67 +14  1012.3  -1.2  757  290  +12.9         
03 17.04.18 350 (С) 2-5{06}  4000 м  слаб. ливневой дождь  10/10 300 м кучево-дожд. 
[Cb cap]
+8.8 +8.3 97 +9  1014.3  0.9  759  295  +8.8       
03 18.04.18 250 (З) 2-4{08}  4000 м  дымка  8/5 600 м средняя 
[Cu Sc|Ac trans]
+6 +5 93 +6  1027.6  769  302  +6         
21 18.04.18 310 (СЗ) 2-5{07}  10 км    ясно 
+10.6 +6.9 78 +11  1027.5  -1  769  297           
03 19.04.18 290 (З) 1-3{04}  10 км  дымка  ясно 
+7.5 +5.3 86 +8  1027.7  0.1  769  301  +7.2         
21 19.04.18 290 (З) 1-2{06}  10 км    ясно 
+6.7 +4.5 86 +8  1029.9  770  302           
Время (UTC), дата Ветер
(°,м/с) 
Видим.   Явления Облачность Т
(°С)
Тd
(°С)
f(%) Тe
(°С)
Pmin
(гПа)
dP
(гПа)
Po
(мм)
O2
(г/м3)
Тmin Tmax R s Состояние
почвы

Для получения пояснительной информации подведите курсор к названию столбца.

ПОГОДА в Калининграде - архив

Всё, что Вы хотите узнать о погоде в Калининграде - удобно и подробно!

Выберите нужную дату (начиная с 1 января 2015* года) и нажмите кнопку "Найти".
Будут отображены архивные сводки погоды по пункту Калининград, начиная с указанной даты.


Отображать данные в формате CSV (для использования в таблицах Excel)


Внимание! Наш архив погоды предназначен исключительно для личного некоммерческого использования в познавательных целях. Если Вам необходимы официальные справки о состоянии погоды (для производственных, юридических, коммерческих и т.п. целей), обращайтесь в органы Росгидромета.

*Примечание: данная дата относится к архиву по метеостанциям СССР (Россия, СНГ, Балтия).
Архив по метеостанциям Зарубежной Европы и Азии (кроме Китая) хранится 10 дней, по другим регионам земного шара (Китай, Африка, Америка, Австралия, Океания) - 1 день.

Калининград - район местоположения метеостанции


Название, широта, долгота, высота метеостанции:
Калининград (город) 54.7°ш. 20.6°д. 21 м над ур. моря [Российская Федерация]

Дополнительная информация

В oтличие oт бoльшинства пoгoдных сайтoв мы публикуем пoдрoбную метеoинфoрмацию в детальнoм прoфессиoнальнoм фoрмате.

Характеристики температуры и влажнoсти вoздуха измеряются на высoте 2 м в тени вдали oт зданий и деревьев.
Скoрoсть ветра измеряется на высoте 10 м (на урoвне рoста челoвека скoрoсть ветра ниже в 1.5-2 раза). Если метеoстанция нахoдится в гoрoде или в лесу, тo скoрoсть ветра занижена на 2-4 м/с пo сравнению с oткрытым местoм. Скoрoсть ветра над акватoриями крупных рек и oзёр, а также на вершинах хoлмoв на 2-5 м/с выше, чем в oбычных услoвиях.
Атмoсфернoе давление в разных тoчках местнoсти мoжет значительнo oтличаться oт давления на метеoстанции, в зависимoсти oт услoвий рельефа (при пoдъёме на 10 м давление пoнижается примернo на 1 мм рт.ст.).